• Processing (Info)

  • MPEC 2014-U20 : 2014 UV

    The following Minor Planet Electronic Circular may be linked-to from your own Web pages, but must not otherwise be redistributed electronically.

    A form allowing access to any MPEC is at the bottom of this page.


    Read MPEC 2014-U19 Read MPEC 2014-U21


    M.P.E.C. 2014-U20                                Issued 2014 Oct. 18, 23:47 UT
    
         The Minor Planet Electronic Circulars contain information on unusual
             minor planets and routine data on comets.  They are published
       on behalf of Commission 20 of the International Astronomical Union by the
              Minor Planet Center, Smithsonian Astrophysical Observatory,
                              Cambridge, MA 02138, U.S.A.
    
                 Prepared using the Tamkin Foundation Computer Network
    
                                  MPC@CFA.HARVARD.EDU
                URL https://www.minorplanetcenter.net/    ISSN 1523-6714
    
                                        2014 UV
    
    Observations:
         K14U00V* C2014 10 16.48583 05 15 53.31 +18 38 03.4          20.4 VqEU020G96
         K14U00V  C2014 10 16.49513 05 15 53.80 +18 37 19.8          20.2 VqEU020G96
         K14U00V  C2014 10 16.49979 05 15 53.98 +18 36 57.3          20.0 VqEU020G96
         K14U00V  C2014 10 16.50509 05 15 54.33 +18 36 33.2          20.5 VqEU020G96
         K14U00V  C2014 10 16.50786 05 15 54.51 +18 36 20.0          20.2 VqEU020G96
         K14U00V  C2014 10 16.51339 05 15 54.77 +18 35 54.2          20.6 VqEU020G96
         K14U00V IC2014 10 17.26327405 16 41.90 +17 36 33.9                qEU020V37
         K14U00V KC2014 10 17.26857805 16 42.19 +17 36 08.9          20.5 RqEU020V37
         K14U00V KC2014 10 17.27093305 16 42.33 +17 35 57.6          20.6 RqEU020V37
         K14U00V KC2014 10 17.27387205 16 42.49 +17 35 43.6          20.4 RqEU020V37
         K14U00V KC2014 10 17.35481605 16 46.39 +17 29 12.9          21.1 VuEU020H21
         K14U00V KC2014 10 17.36076005 16 46.77 +17 28 44.7          20.8 VuEU020H21
         K14U00V KC2014 10 17.36640805 16 47.06 +17 28 17.4          21.0 VuEU020H21
         K14U00V KC2014 10 18.39978 05 17 46.24 +16 03 38.1          20.3 RqEU020H36
         K14U00V KC2014 10 18.41569 05 17 47.00 +16 02 18.1          19.9 RqEU020H36
         K14U00V  C2014 10 18.46250 05 17 49.56 +15 58 26.7          20.3 VqEU020G96
         K14U00V  C2014 10 18.46776 05 17 49.78 +15 58 00.3          20.1 VqEU020G96
         K14U00V  C2014 10 18.47302 05 17 50.07 +15 57 34.0          20.2 VqEU020G96
         K14U00V KC2014 10 18.49478 05 17 51.09 +15 55 45.1          20.7 RoEU020291
         K14U00V KC2014 10 18.49570 05 17 51.13 +15 55 39.8          20.9 RoEU020291
         K14U00V KC2014 10 18.49663 05 17 51.20 +15 55 35.7          20.8 RoEU020291
         K14U00V KC2014 10 18.96533 05 18 17.96 +15 15 56.7          20.4  qEU020104
         K14U00V KC2014 10 18.97085 05 18 18.23 +15 15 28.7          20.0  qEU020104
         K14U00V KC2014 10 18.97657 05 18 18.51 +15 14 59.5          20.6  qEU020104
    
    Observer details:
    104 San Marcello Pistoiese.  Observer P. Bacci.  Measurers P. Bacci, L. Tesi,
        G. Fagioli.  0.60-m f/4 reflector + CCD.
    291 LPL/Spacewatch II.  Observer J. V. Scotti.  1.8-m f/2.7 reflector + CCD.
    G96 Mt. Lemmon Survey.  Observer A. D. Grauer.  Measurers E. J. Christensen,
        A. R. Gibbs, A. D. Grauer, R. E. Hill, J. A. Johnson, R. A. Kowalski,
        S. M. Larson, F. C. Shelly.  1.5-m reflector + CCD.
    H21 Astronomical Research Observatory, Westfield.  Observer R. Holmes.
        Measurers L. Buzzi, S. Foglia, T. Vorobjov, T. Linder.  0.81-m f/4.0
        astrograph + CCD.
    H36 Sandlot Observatory, Scranton.  Observer G. Hug.  0.56-m reflector + CCD.
    V37 McDonald Observatory-LCOGT ELP.  Observers E. J. Christensen, S. M. Larson,
        T. Lister.  Measurer T. Lister.  1.0-m f/8 Ritchey-Chretien + CCD.
    
    Orbital elements:
    2014 UV                                                  Earth MOID = 0.1913 AU
    Epoch 2014 Dec. 9.0 TT = JDT 2457000.5                  MPC
    M 313.22093              (2000.0)            P               Q
    n   0.69444791     Peri.  282.49903     -0.64341835     -0.68049375
    a   1.2629212      Node   216.52316     +0.69226069     -0.71275086
    e   0.1408513      Incl.   36.09651     -0.32678426     -0.17004256
    P   1.42           H   20.4           G   0.15           U   8
    Residuals in seconds of arc
    141016 G96  0.4+  0.2+    141017 V37  0.1+  0.2-    141018 G96  0.4-  0.2+
    141016 G96  0.2+  0.2+    141017 V37  0.0   0.1-    141018 G96  0.2+  0.3+
    141016 G96  0.8-  0.5-    141017 H21  0.8-  0.3-    141018 291  0.1-  0.5+
    141016 G96  0.1+  0.3+    141017 H21  0.2+  0.1+    141018 291  0.2-  0.1-
    141016 G96  0.5+  0.1+    141017 H21  0.2+  0.1+    141018 291  0.2+  0.4+
    141016 G96  0.1-  0.2+    141018 H36  0.0   0.3-    141018 104  0.2+  0.2-
    141017 V37  0.0   0.4-    141018 H36  0.0   0.7-    141018 104  0.1+  0.2-
    141017 V37  0.1-  0.1-    141018 G96  0.0   0.2+    141018 104  0.1+  0.3-
    
    Ephemeris:
    2014 UV                  a,e,i = 1.26, 0.14, 36                  q = 1.0850
    Date    TT    R. A. (2000) Decl.     Delta      r     Elong.  Phase     V
    2014 09 18    04 28 03.1 +40 38 43   0.6786  1.3274   102.3    47.7    22.0
    ...
    2014 10 03    04 57 23.9 +32 15 35   0.5269  1.2975   112.6    45.4    21.3
    ...
    2014 10 11    05 09 25.2 +25 04 18   0.4543  1.2808   118.8    43.1    20.9
    ...
    2014 10 17    05 16 24.9 +17 57 46   0.4070  1.2680   123.6    40.9    20.6
    2014 10 18    05 17 23.6 +16 36 57   0.3999  1.2659   124.3    40.5    20.5
    2014 10 19    05 18 18.9 +15 13 16   0.3930  1.2637   125.1    40.2    20.5
    ...
    2014 10 25    05 22 35.8 +05 51 32   0.3583  1.2508   128.8    38.3    20.2
    ...
    2014 11 02    05 24 46.5 -08 46 53   0.3322  1.2334   130.2    37.9    20.0
    ...
    2014 11 17    05 17 16.9 -35 53 37   0.3511  1.2010   119.4    45.8    20.3
    
    A. U. Tomatic                (C) Copyright 2014 MPC           M.P.E.C. 2014-U20
    

    Read MPEC 2014-U19 Read MPEC 2014-U21


    MPEC number:

    Enter an MPEC number in one of the following forms:

    • 1997-B01 (the full form)
    • J97B01 (the packed version of the full form)
    • B01 (the abbreviated form)